www.pogodaiklimat.ru

Погода и климат >> Архив погоды >> Аргентина >> Игуасу


ПОГОДА в Игуасу

  • Прогноз погоды в Игуасу
  • Монитор погоды в Игуасу

АРХИВ ПОГОДЫ в Игуасу

Время (UTC), дата Ветер
(напр.,м/с)
 
Видим.   Явления Облачность Т
(С)
Тd
(С)
f
(%)
Тe
(С)
Тes
(С)
Комфортность P
(гПа)
Po
(гПа)
Тmin
(С)
Tmax
(С)
R
(мм)
R24
(мм)
S
(см)
06 17.07 В 2 20 км 3/0
[Cs]
+6.2 +5.3 94 +4 +4 1022.9 990.5
09 17.07 СВ 3 20 км ясно +5.6 +5.6 100 +2 +2 1022.8 990.2
12 17.07 СВ 2 20 км 3/0
[Cs]
+10.2 +6.4 77 +9 +11 1025.6 993.0 +5.5 +10.8
15 17.07 СВ 4 20 км ясно +15.2 +7.7 61 +14 +21 1025.6 993.0
18 17.07 СВ 4 20 км ясно +20.2 +8.5 47 +22 +26 комфорт 1023.1 990.8
21 17.07 ЮВ 2 20 км ясно +16.4 +10.6 69 +17 +17 1022.2 989.7
00 18.07 СВ 2 20 км 3/0
[Cs]
+12.2 +9.5 84 +11 +11 1022.4 989.8 +10.2 +21.2
03 18.07 СВ 2 20 км ясно +10.4 +9.6 95 +9 +9 1022.4 990.1
06 18.07 СВ 2 20 км 4/0
[Cs]
+9.3 +8.5 95 +7 +7 1021.6 989.4
09 18.07 СВ 3 20 км 4/0
[Cs]
+8.0 +6.9 93 +5 +5 1021.4 989.0
12 18.07 СВ 4 20 км 6/0
[Ac und Cs]
+10.7 +8.7 87 +8 +10 1022.9 990.4 +7.7 +12.2
15 18.07 СВ 5 20 км 9/0
[Ac As Cs]
+16.4 +8.7 60 +15 +18 1023.3 991.0
18 18.07 СВ 2 10 км гроза, ливневой дождь 9/5 900 м
[Cb cap Ac As]
+18.7 +15.3 81 +20 +22 1020.8 988.6 0.2
21 18.07 Ю 3 20 км зарница {гроза} 9/5 1200 м
[Cb calv Ac As]
+18.4 +14.3 77 +19 +19 1021.3 989.0
00 19.07 В 4 20 км в посл. час дождь {гроза} 6/1 1200 м
[Sc Ac As]
+15.4 +14.4 94 +14 +14 1021.7 989.4 +10.7 +19.4 0.0
03 19.07 СВ 2 20 км 6/1 1200 м
[Sc Ac As]
+14.6 +13.9 96 +14 +14 1021.7 989.7
06 19.07 В 2 20 км 8/1 1200 м
[Sc Ac As]
+13.9 +13.0 94 +13 +13 1020.7 988.8
09 19.07 СВ 3 20 км 8/0
[Ac As]
+13.7 +13.2 97 +12 +12 1019.4 987.6
12 19.07 Ю 5 20 км 9/4 900 м
[Sc Ac As]
+16.7 +14.1 85 +16 +16 1022.7 990.8 +13.0 +16.9 0.2
15 19.07 СВ 2 20 км 10/1 1050 м
[Cu med, cong Ac As]
+16.5 +12.6 78 +17 +19 1023.8 991.8
18 19.07 В 2 10 км слаб. дождь 10/1 1050 м
[Cu med, cong Ac As]
+17.2 +14.6 85 +18 +20 1021.1 989.2 0.0
21 19.07 В 3 20 км {дождь} 9/1 1050 м
[Cu med, cong Ac As]
+16.7 +15.3 91 +17 +17 1018.6 986.6
00 20.07 В 2 15 км {дождь} 8/0
[Ac As]
+15.0 +14.5 97 +15 +15 1019.0 987.2 +15.0 +17.7 1
03 20.07 СВ 2 20 км 6/0
[Ac As]
+13.7 +12.8 94 +13 +13 1018.5 986.6
06 20.07 СВ 2 9000 м дымка 6/0
[Ac As]
+12.9 +12.4 97 +12 +12 1018.2 986.2
09 20.07 СВ 2 9000 м дымка 6/0
[Ac As]
+13.5 +13.1 97 +13 +13 1017.6 985.7
12 20.07 СВ 2 20 км 1/0
[Ac As]
+16.8 +14.4 86 +17 +19 1019.2 987.4 +12.7 +16.8 1
15 20.07 СВ 4 20 км 1/0
[Ac As]
+24.0 +16.6 63 +27 +34 жарко 1018.5 987.0
18 20.07 СВ 3 20 км 1/0
[Ac As]
+27.4 +17.0 53 +31 +36 душно 1015.4 984.1
21 20.07 СВ 3 20 км ясно +24.6 +16.6 61 +28 +28 душно 1014.0 982.6
00 21.07 СВ 2 20 км ясно +19.9 +15.0 73 +23 +23 комфорт 1014.9 983.4 +16.8 +28.3
03 21.07 СВ 3 20 км ясно +18.7 +17.9 95 +20 +20 1015.2 984.0
06 21.07 СВ 4 20 км ясно +17.8 +17.0 95 +18 +18 1013.9 982.9
09 21.07 СВ 2 20 км 4/0
[Cs]
+15.6 +14.2 91 +16 +16 1013.9 982.6
12 21.07 СВ 3 20 км 9/0
[Ac trans Cs]
+16.6 +13.4 81 +16 +18 1015.1 983.6 +15.0 +19.9
15 21.07 СВ 4 20 км 9/0
[Cs]
+22.6 +14.4 60 +26 +32 жарко 1014.4 983.2
18 21.07 СВ 4 20 км 9/0
[Cs]
+23.0 +13.3 54 +26 +30 жарко 1011.3 980.2
21 21.07 СВ 5 20 км 6/0
[Cs]
+21.0 +14.6 67 +24 +24 комфорт 1010.1 978.8
00 22.07 СВ 3 20 км 6/0
[Cs]
+20.2 +15.0 72 +23 +23 комфорт 1011.3 980.0 +16.6 +23.5
03 22.07 СВ 3 20 км 5/0
[Cs]
+19.0 +13.6 71 +20 +20 1012.1 981.0
06 22.07 СВ 2 20 км 4/0
[Ac As]
+18.3 +14.2 77 +19 +19 1013.3 982.1
09 22.07 СВ 2 20 км 4/0
[Ac trans]
+17.3 +14.2 82 +18 +18 1013.6 982.2
12 22.07 СВ 4 20 км 5/0
[Ac trans]
+23.2 +14.9 60 +27 +29 душно 1014.5 983.4 +16.6 +23.2
15 22.07 С 5 20 км 3/0
[Ac trans]
+27.0 +14.5 46 +29 +34 жарко 1014.2 983.3
18 22.07 С 8 20 км 3/0
[Ac trans]
+29.4 +14.0 39 +31 +32 жарко 1011.9 981.0
21 22.07 СВ 2 20 км 4/0
[Ac trans Cs]
+26.4 +16.1 53 +30 +30 душно 1012.1 981.0
00 23.07 штиль 0 20 км 4/0
[Cs]
+22.4 +15.5 65 +26 +26 жарко 1013.5 982.6 +22.1 +29.5
03 23.07 СВ 3 20 км ясно +20.9 +15.4 71 +25 +25 комфорт 1014.6 983.7
12 23.07 штиль 0 20 км {гроза} 10/3 1200 м
[Sc Ac As Cs]
+20.4 +16.1 76 +23 +24 комфорт 1016.1 984.9 +18.4 +22.4
15 23.07 С 3 20 км 9/1 1200 м
[Sc Ac As Cs]
+25.4 +16.4 57 +29 +34 душно 1016.4 985.4
18 23.07 С 4 20 км 5/0
[Ac As Cs]
+27.0 +15.9 51 +30 +33 душно 1014.1 983.2
21 23.07 СВ 3 20 км 4/0
[Cs]
+26.6 +16.0 52 +30 +30 душно 1013.8 982.9
00 24.07 СВ 1 20 км 5/0
[Cs]
+21.0 +17.1 78 +26 +26 душно 1015.0 983.8 +20.4 +28.9
03 24.07 СВ 2 20 км 4/0
[Cs]
+19.5 +17.1 86 +22 +22 комфорт 1017.1 986.0

 

Местоположение метеостанции Игуасу (Аргентина): широта -25.73 долгота -54.46 высота над уровнем моря 270 м.

В архиве по умолчанию представлена погода в Игуасу за последнюю неделю. Архивные данные за месяц целиком и за предыдущие месяцы, начиная с января 2011 года, Вы можете получить, выбрав интересующий диапазон дат из раскрывающегося списка и нажав кнопку "Ввод!".


*Определитесь, кто Вы:
робот инопланетянин человек

Внимание! Время в таблицах - всемирное. Для получения местного времени необходимо прибавить поправку, которая равна -3 ч.

Смотрите также архив погоды в соседних городах и на ближайших метеорологических станциях:

Погода в Фос-ду-Игуасу (Парана, Бразилия) (15 км)
Погода в Фос-ду-Игуасу (Парана, Бразилия) (27 км)
Погода в Аэропорту Гуарани (Парагвай) (50 км)
Погода в Планарту (Парана, Бразилия) (71 км)
Погода в Дионисио Серкейра (Парана, Бразилия) (103 км)
Погода в Дойс-Визиньюсе (Парана, Бразилия) (136 км)
Погода в Марешал-Кандиду-Рондоне (Парана, Бразилия) (141 км)
Погода в Сан-Мигель-ду-Осте (Санта-Катарина, Бразилия) (151 км)
Погода в Капитан Меса (Парагвай) (152 км)
Погода в Ново-Оризонти (Санта-Катарина, Бразилия) (177 км)

Пояснения к столбцам:

Ветер - указаны скорость ветра в м/с - средняя за 10 мин, порывы в срок и между сроками (в фигурных скобках) и направление, откуда дует ветер: С - северный, СВ - северо-восточный, В - восточный, ЮВ - юго-восточный, Ю - южный, ЮЗ - юго-западный, З - западный, СЗ - северо-западный.
Видимость - горизонтальная дальность видимости в метрах или километрах. При видимости от 1 до 10 км при отсутствии осадков обычно наблюдается дымка, при ухудшении видимости до 1 км и менее - туман. В сухую погоду видимость может ухудшаться дымом, пылью или мглою.
Явления - указаны атмосферные явления, наблюдавшиеся в срок или в последний час перед сроком; фигурными скобками обозначены явления, наблюдавшиеся между сроками (за 1-3 часа до срока); квадратными скобками обозначены град или гололедные отложения с указанием их диаметра в мм.
Облачность - указаны через наклонную черту общая и нижняя облачность в баллах и высота нижней границы облаков в метрах; квадратными скобками обозначены формы облаков: Ci - перистые, Cs - перисто-слоистые, Cc - перисто-кучевые, Ac - высококучевые, As - высокослоистые, Sc - слоисто-кучевые, Ns - слоисто-дождевые, Cu - кучевые, Cb - кучево-дождевые. Подробнее классификацию облаков см. в Атласе облаков (PDF).
T - Температура воздуха - температура, измеренная на высоте 2 м над землей.
Td - Температура точки росы - температура, при понижении до которой содержащийся в воздухе водяной пар достигнет насыщения.
f - Относительная влажность воздуха - влажноcть воздуха, измеренная на высоте 2 м над землей.
Te - Эффективная температура - температура, которую ощущает одетый по сезону человек в тени. Характеристика душности погоды. При расчете учитывается влияние влажности воздуха и скорости ветра на теплоощущения человека.
Tes - Эффективная температура на солнце - температура, которую ощущает человек, с поправкой на солнечный нагрев. Характеристика знойности погоды. Зависит от высоты солнца над горизонтом, облачности и скорости ветра. Ночью, в пасмурную погоду, а также при ветре 12 м/с и более поправка равна нулю.
P - Атмосферное давление - приведенное к уровню моря атмосферное давление.
Po - Атмосферное давление - измеренное на уровне метеостанции атмосферное давление.
Tmin - Минимальная температура - минимум температуры воздуха на высоте 2 м над землей.
Tmax - Максимальная температура - максимум температуры воздуха на высоте 2 м над землей.
R - Количество осадков - Количество выпавших осадков за период времени, мм. При наведении курсора мыши на число - период времени, за который выпало указанное количество осадков.
R24 - Количество осадков - Количество выпавших осадков за 24 часа, мм.
S - Снежный покров - Высота снежного покрова, см. При наведении курсора мыши на число - состояние снежного покрова и степень покрытия местности в баллах.